TimePST,TemperatureF,Dew PointF,Humidity,Sea Level PressureIn,VisibilityMPH,Wind Direction,Wind SpeedMPH,Gust SpeedMPH,PrecipitationIn,Events,Conditions,WindDirDegrees,DateUTC
12:15 AM,42.8,21.2,42,29.91,10.0,NNW,3.5,-,N/A,,Clear,340,2012-12-12 08:15:00
12:55 AM,46.4,21.2,37,29.90,10.0,NNW,3.5,-,N/A,,Clear,330,2012-12-12 08:55:00
1:15 AM,48.2,23.0,37,29.90,10.0,Calm,Calm,-,N/A,,Clear,0,2012-12-12 09:15:00
1:35 AM,46.4,23.0,40,29.89,10.0,North,3.5,-,N/A,,Clear,360,2012-12-12 09:35:00
1:55 AM,44.6,23.0,43,29.88,10.0,NNE,3.5,-,N/A,,Clear,30,2012-12-12 09:55:00
2:15 AM,41.0,23.0,49,29.87,10.0,NE,3.5,-,N/A,,Clear,40,2012-12-12 10:15:00
2:35 AM,46.4,21.2,37,29.87,10.0,Calm,Calm,-,N/A,,Clear,0,2012-12-12 10:35:00
2:55 AM,48.2,19.4,32,29.87,10.0,WSW,3.5,-,N/A,,Clear,240,2012-12-12 10:55:00
3:15 AM,50.0,19.4,30,29.86,10.0,SE,3.5,-,N/A,,Clear,140,2012-12-12 11:15:00
3:35 AM,51.8,19.4,28,29.86,10.0,SSE,13.8,17.3,N/A,,Clear,160,2012-12-12 11:35:00
3:55 AM,51.8,19.4,28,29.86,10.0,SW,5.8,-,N/A,,Clear,220,2012-12-12 11:55:00
4:15 AM,50.0,19.4,30,29.86,10.0,NW,3.5,-,N/A,,Clear,310,2012-12-12 12:15:00
4:35 AM,50.0,19.4,30,29.87,10.0,NW,3.5,-,N/A,,Clear,310,2012-12-12 12:35:00
4:55 AM,50.0,19.4,30,29.87,10.0,Calm,Calm,-,N/A,,Clear,0,2012-12-12 12:55:00
5:35 AM,50.0,19.4,30,29.88,10.0,SSW,3.5,-,N/A,,Clear,210,2012-12-12 13:35:00
5:55 AM,48.2,21.2,34,29.88,10.0,Calm,Calm,-,N/A,,Clear,0,2012-12-12 13:55:00
6:15 AM,46.4,23.0,40,29.88,10.0,ENE,6.9,-,N/A,,Clear,60,2012-12-12 14:15:00
6:35 AM,46.4,21.2,37,29.88,10.0,ENE,9.2,-,N/A,,Clear,60,2012-12-12 14:35:00
6:55 AM,46.4,19.4,34,29.88,10.0,East,8.1,-,N/A,,Clear,80,2012-12-12 14:55:00
7:15 AM,46.4,19.4,34,29.89,10.0,WSW,3.5,-,N/A,,Clear,240,2012-12-12 15:15:00
7:35 AM,48.2,19.4,32,29.90,10.0,Calm,Calm,-,N/A,,Clear,0,2012-12-12 15:35:00
7:55 AM,48.2,19.4,32,29.90,10.0,Calm,Calm,-,N/A,,Clear,0,2012-12-12 15:55:00
8:15 AM,48.2,21.2,34,29.91,10.0,Calm,Calm,-,N/A,,Clear,0,2012-12-12 16:15:00
8:55 AM,53.6,17.6,24,29.92,10.0,Calm,Calm,-,N/A,,Clear,0,2012-12-12 16:55:00
9:15 AM,57.2,17.6,21,29.92,10.0,SSE,15.0,-,N/A,,Clear,160,2012-12-12 17:15:00
9:35 AM,57.2,15.8,20,29.92,10.0,South,18.4,-,N/A,,Clear,170,2012-12-12 17:35:00
9:55 AM,57.2,15.8,20,29.92,10.0,SSE,12.7,18.4,N/A,,Clear,160,2012-12-12 17:55:00
10:15 AM,59.0,15.8,19,29.91,10.0,SSE,17.3,-,N/A,,Clear,160,2012-12-12 18:15:00
10:35 AM,59.0,15.8,19,29.90,10.0,South,18.4,27.6,N/A,,Clear,180,2012-12-12 18:35:00
10:55 AM,59.0,15.8,19,29.89,10.0,South,18.4,25.3,N/A,,Clear,180,2012-12-12 18:55:00
11:15 AM,59.0,15.8,19,29.88,10.0,South,20.7,27.6,N/A,,Clear,180,2012-12-12 19:15:00
11:35 AM,59.0,15.8,19,29.87,10.0,South,18.4,24.2,N/A,,Clear,180,2012-12-12 19:35:00
11:55 AM,59.0,15.8,19,29.87,10.0,South,18.4,23.0,N/A,,Clear,170,2012-12-12 19:55:00
12:15 PM,59.0,15.8,19,29.85,10.0,SSE,18.4,28.8,N/A,,Clear,160,2012-12-12 20:15:00
12:35 PM,59.0,15.8,19,29.85,10.0,South,17.3,23.0,N/A,,Clear,170,2012-12-12 20:35:00
12:55 PM,59.0,15.8,19,29.84,10.0,South,16.1,-,N/A,,Clear,170,2012-12-12 20:55:00
1:15 PM,59.0,15.8,19,29.84,10.0,South,17.3,24.2,N/A,,Clear,170,2012-12-12 21:15:00
1:35 PM,59.0,15.8,19,29.83,10.0,South,18.4,21.9,N/A,,Clear,170,2012-12-12 21:35:00
1:55 PM,59.0,15.8,19,29.82,10.0,South,15.0,21.9,N/A,,Clear,170,2012-12-12 21:55:00
2:15 PM,59.0,15.8,19,29.82,10.0,South,18.4,-,N/A,,Clear,180,2012-12-12 22:15:00
2:35 PM,57.2,15.8,20,29.82,10.0,South,16.1,23.0,N/A,,Clear,180,2012-12-12 22:35:00
2:55 PM,57.2,15.8,20,29.83,10.0,South,12.7,-,N/A,,Clear,180,2012-12-12 22:55:00
3:15 PM,57.2,15.8,20,29.83,10.0,SSE,9.2,17.3,N/A,,Clear,160,2012-12-12 23:15:00
3:55 PM,57.2,15.8,20,29.82,10.0,South,6.9,-,N/A,,Clear,170,2012-12-12 23:55:00
4:15 PM,57.2,15.8,20,29.82,10.0,South,8.1,-,N/A,,Clear,190,2012-12-13 00:15:00
4:35 PM,57.2,15.8,20,29.82,10.0,South,13.8,-,N/A,,Clear,170,2012-12-13 00:35:00
4:55 PM,57.2,15.8,20,29.82,10.0,South,3.5,-,N/A,,Clear,190,2012-12-13 00:55:00
5:15 PM,55.4,15.8,21,29.83,10.0,WSW,3.5,-,N/A,,Clear,250,2012-12-13 01:15:00
5:35 PM,55.4,15.8,21,29.83,10.0,Calm,Calm,-,N/A,,Clear,0,2012-12-13 01:35:00
5:55 PM,55.4,15.8,21,29.82,10.0,South,10.4,-,N/A,,Clear,190,2012-12-13 01:55:00
6:15 PM,55.4,15.8,21,29.83,10.0,South,8.1,-,N/A,,Clear,190,2012-12-13 02:15:00
6:35 PM,55.4,15.8,21,29.83,10.0,SSW,8.1,-,N/A,,Clear,200,2012-12-13 02:35:00
6:55 PM,57.2,15.8,20,29.83,10.0,SSW,6.9,-,N/A,,Clear,200,2012-12-13 02:55:00
7:15 PM,53.6,15.8,22,29.83,10.0,WSW,3.5,-,N/A,,Clear,240,2012-12-13 03:15:00
7:35 PM,55.4,15.8,21,29.83,10.0,Calm,Calm,-,N/A,,Clear,0,2012-12-13 03:35:00
7:55 PM,53.6,15.8,22,29.83,10.0,West,3.5,-,N/A,,Clear,280,2012-12-13 03:55:00
8:15 PM,53.6,15.8,22,29.83,10.0,West,6.9,-,N/A,,Clear,270,2012-12-13 04:15:00
8:35 PM,53.6,15.8,22,29.82,10.0,Calm,Calm,-,N/A,,Clear,0,2012-12-13 04:35:00
8:55 PM,53.6,15.8,22,29.82,10.0,Calm,Calm,-,N/A,,Clear,0,2012-12-13 04:55:00
9:15 PM,50.0,17.6,28,29.82,10.0,Calm,Calm,-,N/A,,Clear,0,2012-12-13 05:15:00
9:35 PM,53.6,17.6,24,29.82,10.0,Calm,Calm,-,N/A,,Clear,0,2012-12-13 05:35:00
9:55 PM,53.6,17.6,24,29.82,10.0,Calm,Calm,-,N/A,,Clear,0,2012-12-13 05:55:00
10:15 PM,53.6,17.6,24,29.82,10.0,East,3.5,-,N/A,,Clear,90,2012-12-13 06:15:00
10:35 PM,51.8,17.6,26,29.83,10.0,Calm,Calm,-,N/A,,Clear,0,2012-12-13 06:35:00
10:55 PM,53.6,17.6,24,29.82,10.0,Calm,Calm,-,N/A,,Clear,0,2012-12-13 06:55:00
11:15 PM,53.6,19.4,26,29.82,10.0,Calm,Calm,-,N/A,,Clear,0,2012-12-13 07:15:00
11:35 PM,53.6,19.4,26,29.82,10.0,South,8.1,-,N/A,,Clear,170,2012-12-13 07:35:00
11:55 PM,53.6,19.4,26,29.81,10.0,South,5.8,-,N/A,,Clear,180,2012-12-13 07:55:00